EW5817 Weather Reports


Display with metric or nautical units.
time (UTC)temp
F
wind
direction
speed
MPH
gust
MPH
rain 1hr
in
rain 24hr
in
rain mn
in
humidity
%
barometer
mb
20260906123738 60 113 0.0 2.0 0.00 0.04 0.00 91 1019.9
20260906123238 60 68 0.0 2.0 0.00 0.04 0.00 91 1019.9
20260906122738 60 68 0.0 4.0 0.00 0.04 0.00 91 1019.9
20260906121737 60 68 0.0 2.0 0.00 0.04 0.00 91 1019.0
20260906121237 60 113 0.0 1.0 0.00 0.04 0.00 91 1019.0
20260906120737 59 113 0.0 2.0 0.00 0.04 0.00 91 1019.9
20260906120237 59 90 0.0 2.0 0.00 0.04 0.00 91 1019.9
20260906115737 59 90 0.0 2.0 0.00 0.04 0.00 91 1019.9
20260906115236 59 68 0.0 0.0 0.00 0.04 0.00 91 1019.9
20260906114736 59 68 0.0 0.0 0.00 0.04 0.00 91 1019.9
20260906114236 59 68 0.0 0.0 0.00 0.04 0.00 91 1019.9
20260906113736 59 68 0.0 0.0 0.00 0.04 0.00 91 1019.9
20260906113236 59 68 0.0 0.0 0.00 0.04 0.00 91 1019.9
20260906112736 59 68 0.0 0.0 0.00 0.04 0.00 91 1019.9
20260906112235 59 68 0.0 0.0 0.00 0.04 0.00 91 1019.0
20260906111736 59 68 0.0 0.0 0.00 0.04 0.00 91 1019.0
20260906110735 60 68 0.0 0.0 0.00 0.04 0.00 91 1019.0
20260906110235 60 68 0.0 2.0 0.00 0.04 0.00 91 1019.0
20260906105735 60 68 0.0 2.0 0.00 0.04 0.00 91 1019.0
20260906105235 60 68 0.0 0.0 0.00 0.04 0.00 91 1019.0
20260906104735 60 68 0.0 0.0 0.00 0.04 0.00 91 1019.0
20260906104235 60 23 0.0 1.0 0.00 0.04 0.00 91 1019.0
20260906103835 60 23 0.0 1.0 0.00 0.04 0.00 91 1019.0
20260906103234 60 23 0.0 2.0 0.00 0.04 0.00 91 1019.0
20260906102734 60 23 0.0 3.0 0.00 0.04 0.00 91 1019.0
20260906102234 60 23 0.0 3.0 0.00 0.04 0.00 91 1019.0
20260906101734 60 23 0.0 0.0 0.00 0.04 0.00 91 1019.0
20260906100733 60 360 0.0 0.0 0.00 0.04 0.00 91 1019.0
20260906100233 60 23 0.0 0.0 0.00 0.04 0.00 91 1019.0
20260906095733 60 338 0.0 0.0 0.00 0.04 0.00 91 1019.0
20260906095233 60 360 0.0 0.0 0.00 0.04 0.00 91 1019.0
20260906094733 60 338 0.0 0.0 0.00 0.04 0.00 91 1019.0
20260906094232 60 90 0.0 0.0 0.00 0.04 0.00 91 1019.0
20260906093732 60 90 0.0 5.0 0.00 0.04 0.00 91 1019.0
20260906092732 60 90 0.0 2.0 0.00 0.04 0.00 91 1019.0
20260906092232 60 90 0.0 2.0 0.00 0.04 0.00 91 1019.0
20260906091232 60 113 0.0 0.0 0.00 0.04 0.00 91 1019.0
20260906090731 60 68 0.0 0.0 0.00 0.04 0.00 91 1019.0
20260906090232 60 68 0.0 0.0 0.00 0.04 0.00 91 1019.0
20260906085731 60 68 0.0 0.0 0.00 0.04 0.00 91 1019.0
20260906085231 60 68 0.0 0.0 0.00 0.04 0.00 91 1019.0
20260906084731 60 68 0.0 0.0 0.00 0.04 0.00 91 1019.0
20260906083732 61 68 0.0 0.0 0.00 0.04 0.00 91 1019.0
20260906082731 61 68 0.0 0.0 0.00 0.04 0.00 91 1019.0
20260906082230 61 68 0.0 0.0 0.00 0.04 0.00 91 1017.9
20260906081730 61 68 0.0 0.0 0.00 0.04 0.00 91 1017.9
20260906081300 61 68 0.0 0.0 0.00 0.04 0.00 91 1017.9
20260906080730 61 68 0.0 0.0 0.00 0.04 0.00 91 1017.9
20260906075730 62 68 0.0 0.0 0.00 0.04 0.00 91 1017.9
20260906074730 62 68 0.0 0.0 0.00 0.04 0.00 91 1017.9
20260906074229 62 68 0.0 0.0 0.00 0.04 0.00 91 1017.9
20260906073730 62 68 0.0 0.0 0.00 0.04 0.00 91 1017.9
20260906073259 62 68 0.0 0.0 0.00 0.04 0.00 91 1017.9
20260906072729 62 68 0.0 0.0 0.00 0.04 0.00 91 1017.9
20260906072228 62 68 0.0 1.0 0.00 0.04 0.00 91 1017.9
20260906071729 63 68 0.0 1.0 0.00 0.04 0.00 91 1017.9
20260906071229 63 90 0.0 2.0 0.00 0.04 0.00 91 1017.9
20260906070728 63 90 0.0 3.0 0.00 0.04 0.00 91 1017.0
20260906070228 63 90 0.0 3.0 0.00 0.04 0.00 91 1017.0
20260906065728 63 90 0.0 2.0 0.00 0.04 0.00 91 1017.0
20260906065228 63 113 0.0 0.0 0.00 0.04 0.00 91 1017.9
20260906064758 63 90 0.0 2.0 0.00 0.04 0.00 91 1017.9
20260906064227 63 113 0.0 3.0 0.00 0.04 0.00 91 1017.9
20260906063757 63 68 0.0 3.0 0.00 0.04 0.00 91 1017.9
20260906063227 63 23 0.0 0.0 0.00 0.04 0.00 91 1017.9
20260906062727 64 45 0.0 0.0 0.00 0.04 0.00 91 1017.9
20260906062227 64 23 0.0 0.0 0.00 0.04 0.00 91 1017.9
20260906061727 64 23 0.0 0.0 0.00 0.04 0.00 91 1017.9
20260906061226 64 360 0.0 0.0 0.00 0.04 0.00 91 1017.9
20260906060726 64 23 0.0 4.0 0.00 0.04 0.00 91 1017.9
20260906060227 64 23 0.0 4.0 0.00 0.04 0.00 91 1017.9
20260906055726 64 23 0.0 0.0 0.00 0.04 0.00 91 1017.9
20260906055226 64 23 0.0 2.0 0.00 0.04 0.00 91 1017.9
20260906054726 64 68 0.0 2.0 0.00 0.04 0.00 91 1017.9
20260906054226 64 68 0.0 0.0 0.00 0.04 0.00 91 1017.9
20260906053725 65 23 0.0 0.0 0.00 0.04 0.00 91 1017.0
20260906053226 65 23 0.0 0.0 0.00 0.04 0.00 91 1017.0
20260906052725 65 23 0.0 0.0 0.00 0.04 0.00 91 1017.0
20260906052225 65 23 0.0 2.0 0.00 0.04 0.00 91 1017.0
20260906050725 66 113 0.0 0.0 0.00 0.04 0.00 91 1017.0
20260906050224 66 113 0.0 2.0 0.00 0.04 0.00 91 1017.0
20260906045254 66 113 0.0 4.0 0.00 0.04 0.00 91 1017.9
20260906044724 66 113 3.0 4.0 0.00 0.04 0.00 91 1017.9
20260906044224 66 113 0.0 4.0 0.00 0.04 0.00 91 1017.9
20260906043724 66 45 0.0 0.0 0.00 0.04 0.00 91 1017.9
20260906043224 66 45 0.0 0.0 0.00 0.04 0.00 91 1017.9
20260906042723 67 68 0.0 0.0 0.00 0.04 0.00 91 1017.9
20260906041723 67 68 0.0 0.0 0.00 0.04 0.00 91 1017.9
20260906041223 67 45 0.0 2.0 0.00 0.04 0.00 91 1017.9
20260906040723 67 68 0.0 2.0 0.00 0.04 0.00 91 1017.9
20260906040223 68 68 0.0 2.0 0.00 0.04 0.00 91 1017.9
20260906035723 68 45 1.0 6.0 0.00 0.04 0.00 91 1017.9
20260906035252 68 68 0.0 6.0 0.00 0.04 0.04 91 1017.0
20260906034723 68 158 0.0 2.0 0.00 0.04 0.04 91 1017.0
20260906034223 69 360 0.0 0.0 0.00 0.04 0.04 91 1017.0
20260906033722 69 360 0.0 0.0 0.00 0.04 0.04 91 1017.0
20260906033222 69 338 0.0 3.0 0.00 0.04 0.04 91 1017.0
20260906032722 69 338 0.0 3.0 0.00 0.04 0.04 91 1017.0
20260906032322 69 338 0.0 0.0 0.00 0.04 0.04 91 1017.0
20260906031721 69 338 0.0 0.0 0.00 0.04 0.04 91 1017.0
20260906031221 69 338 0.0 0.0 0.00 0.04 0.04 91 1017.0
20260906030721 69 338 0.0 0.0 0.00 0.04 0.04 91 1017.0
20260906025721 70 338 0.0 0.0 0.00 0.04 0.04 91 1017.0
20260906024721 70 338 0.0 0.0 0.00 0.04 0.04 91 1017.0
20260906023220 70 338 0.0 0.0 0.00 0.04 0.04 91 1017.0
20260906022220 70 338 0.0 0.0 0.00 0.04 0.04 91 1016.0
20260906021719 71 338 0.0 0.0 0.00 0.04 0.04 91 1016.0
20260906021219 71 338 0.0 0.0 0.00 0.04 0.04 91 1016.0
20260906020719 71 338 0.0 0.0 0.00 0.04 0.04 91 1016.0
20260906015249 71 338 0.0 0.0 0.00 0.04 0.04 91 1016.0
20260906014749 71 338 0.0 0.0 0.00 0.04 0.04 91 1016.0
20260906014249 71 338 0.0 0.0 0.00 0.04 0.04 91 1016.0
20260906013748 72 338 0.0 0.0 0.00 0.04 0.04 90 1016.0
20260906013218 72 338 0.0 0.0 0.00 0.04 0.04 90 1016.0
20260906012748 72 338 0.0 0.0 0.00 0.04 0.04 90 1016.0
20260906011748 72 338 0.0 1.0 0.00 0.04 0.04 89 1015.0
20260906010747 72 338 0.0 0.0 0.00 0.04 0.04 88 1015.0
20260906005747 73 315 0.0 0.0 0.00 0.04 0.04 88 1015.0
20260906005247 73 338 0.0 0.0 0.00 0.04 0.04 88 1016.0
20260906004747 73 338 0.0 0.0 0.00 0.04 0.04 87 1016.0
20260906004247 73 338 0.0 0.0 0.00 0.04 0.04 87 1016.0
20260906003246 74 315 0.0 0.0 0.00 0.04 0.04 87 1016.0
20260906002747 74 315 0.0 0.0 0.00 0.04 0.04 87 1016.0
20260906002316 74 315 0.0 0.0 0.00 0.04 0.04 87 1016.0
20260906001747 74 315 0.0 0.0 0.00 0.04 0.04 86 1016.0
20260906001246 75 315 0.0 2.0 0.00 0.04 0.04 86 1016.0
20260906000746 75 315 0.0 2.0 0.00 0.04 0.04 85 1016.0
20260906000246 75 315 0.0 0.0 0.00 0.04 0.04 85 1016.0
20260905235745 75 315 0.0 0.0 0.00 0.04 0.04 84 1016.0
20260905235245 75 315 0.0 0.0 0.00 0.04 0.04 83 1016.0
20260905234745 76 315 0.0 0.0 0.00 0.04 0.04 83 1016.0
20260905233745 76 315 0.0 6.0 0.00 0.04 0.04 82 1016.0
20260905233245 77 360 0.0 3.0 0.00 0.04 0.04 82 1016.0
20260905232745 77 338 0.0 6.0 0.00 0.04 0.04 81 1016.0
20260905231744 77 338 0.0 9.0 0.00 0.04 0.04 80 1016.0
20260905231244 77 338 8.0 9.0 0.00 0.04 0.04 80 1016.0
20260905225744 77 338 0.0 5.0 0.00 0.04 0.04 80 1016.0
20260905225243 77 23 0.0 7.0 0.00 0.04 0.04 80 1016.0
20260905224743 78 338 3.0 7.0 0.00 0.04 0.04 78 1016.0
20260905223844 78 293 0.0 10.0 0.00 0.04 0.04 77 1016.0
20260905223243 79 293 4.0 11.0 0.00 0.04 0.04 76 1016.0
20260905222743 79 338 0.0 12.0 0.00 0.04 0.04 74 1016.0
20260905222312 80 315 0.0 12.0 0.00 0.04 0.04 74 1016.0
20260905221743 80 270 5.0 11.0 0.00 0.04 0.04 73 1016.0
20260905220742 82 338 6.0 8.0 0.00 0.04 0.04 71 1015.0
20260905220243 82 23 2.0 5.0 0.00 0.04 0.04 73 1015.0
20260905215742 82 293 0.0 5.0 0.00 0.04 0.04 74 1015.0
20260905215242 82 293 0.0 4.0 0.00 0.04 0.04 74 1015.0
20260905214741 81 270 0.0 7.0 0.00 0.04 0.04 74 1015.0
20260905214242 80 158 1.0 7.0 0.00 0.04 0.04 74 1015.0
20260905212742 80 90 3.0 6.0 0.00 0.04 0.04 75 1015.0
20260905211741 79 113 0.0 5.0 0.00 0.04 0.04 77 1016.0
20260905211241 79 203 0.0 5.0 0.00 0.04 0.04 79 1016.0
20260905210740 79 68 0.0 6.0 0.00 0.04 0.04 80 1015.0
20260905210241 79 360 0.0 6.0 0.00 0.04 0.04 82 1015.0
20260905205740 79 23 0.0 6.0 0.00 0.04 0.04 83 1015.0
20260905204239 78 360 0.0 5.0 0.00 0.04 0.04 87 1015.0
20260905203739 77 23 2.0 2.0 0.00 0.04 0.04 88 1015.0
20260905202740 76 180 0.0 5.0 0.00 0.04 0.04 90 1015.0
20260905202240 76 23 2.0 4.0 0.00 0.04 0.04 91 1016.0
20260905201739 76 68 0.0 8.0 0.00 0.04 0.04 91 1016.0
20260905201239 75 113 0.0 8.0 0.00 0.04 0.04 91 1016.0
20260905200238 74 338 0.0 1.0 0.00 0.04 0.04 91 1016.0
20260905195738 74 360 0.0 1.0 0.00 0.04 0.04 91 1016.0
20260905195308 74 360 0.0 4.0 0.00 0.04 0.04 91 1016.0
20260905194738 73 113 0.0 5.0 0.00 0.04 0.04 91 1016.0
20260905194239 73 135 2.0 6.0 0.00 0.04 0.04 91 1016.0
20260905193738 73 23 0.0 6.0 0.00 0.04 0.04 91 1016.0
20260905193237 73 90 3.0 5.0 0.00 0.04 0.04 91 1016.0
20260905192737 73 338 0.0 4.0 0.00 0.04 0.04 91 1016.0
20260905192238 73 113 0.0 4.0 0.00 0.04 0.04 91 1016.0
20260905191737 73 68 0.0 4.0 0.00 0.04 0.04 91 1016.0
20260905191237 73 68 0.0 6.0 0.00 0.04 0.04 91 1016.0
20260905190737 73 113 0.0 6.0 0.00 0.04 0.04 91 1016.0
20260905190237 73 68 5.0 6.0 0.00 0.04 0.04 91 1016.0
20260905185237 73 248 0.0 6.0 0.00 0.04 0.04 91 1016.0
20260905184736 72 338 5.0 6.0 0.04 0.04 0.04 91 1016.0
20260905183736 71 23 2.0 3.0 0.04 0.04 0.04 91 1016.0
20260905183236 71 360 0.0 2.0 0.04 0.04 0.04 91 1016.0
20260905182735 71 90 2.0 2.0 0.04 0.04 0.04 91 1016.0
20260905182236 71 203 0.0 0.0 0.04 0.04 0.04 91 1016.0
20260905181736 71 68 0.0 4.0 0.04 0.04 0.04 91 1016.0
20260905180735 70 360 0.0 4.0 0.04 0.04 0.04 91 1016.0
20260905175735 71 360 4.0 4.0 0.04 0.04 0.04 91 1016.0
20260905175235 71 360 0.0 2.0 0.04 0.04 0.04 91 1015.0
20260905174734 71 68 0.0 2.0 0.00 0.00 0.00 91 1015.0
20260905174234 71 113 0.0 4.0 0.00 0.00 0.00 91 1015.0
20260905173734 71 23 0.0 4.0 0.00 0.00 0.00 91 1016.0
20260905173234 71 180 0.0 4.0 0.00 0.00 0.00 91 1016.0
20260905172734 71 338 0.0 5.0 0.00 0.00 0.00 91 1016.0
20260905172235 71 360 0.0 5.0 0.00 0.00 0.00 91 1016.0
20260905171734 71 23 2.0 5.0 0.00 0.00 0.00 91 1016.0
20260905171234 71 338 0.0 5.0 0.00 0.00 0.00 91 1016.0
20260905170734 71 338 0.0 5.0 0.00 0.00 0.00 91 1015.0
20260905170233 70 113 4.0 5.0 0.00 0.00 0.00 91 1015.0
20260905165733 70 338 3.0 3.0 0.00 0.00 0.00 91 1015.0
20260905165233 70 90 0.0 4.0 0.00 0.00 0.00 91 1016.0
20260905164733 70 360 0.0 4.0 0.00 0.00 0.00 91 1016.0
20260905164233 70 23 0.0 2.0 0.00 0.00 0.00 91 1016.0
20260905163232 70 23 0.0 5.0 0.00 0.00 0.00 91 1016.0
20260905162732 70 23 0.0 4.0 0.00 0.00 0.00 91 1016.0
20260905161232 69 68 0.0 5.0 0.00 0.00 0.00 91 1015.0
20260905160231 69 113 0.0 7.0 0.00 0.00 0.00 91 1017.0
20260905155731 69 68 0.0 3.0 0.00 0.00 0.00 91 1017.0
20260905155231 69 45 0.0 4.0 0.00 0.00 0.00 91 1016.0
20260905154732 69 90 0.0 4.0 0.00 0.00 0.00 91 1016.0
20260905154232 69 225 0.0 4.0 0.00 0.00 0.00 91 1016.0
20260905153731 70 338 0.0 4.0 0.00 0.00 0.00 91 1016.0
20260905153231 70 113 0.0 10.0 0.00 0.00 0.00 91 1016.0
20260905152730 70 68 0.0 10.0 0.00 0.00 0.00 91 1016.0
20260905152230 70 293 9.0 10.0 0.00 0.04 0.00 91 1016.0
20260905151230 70 293 0.0 6.0 0.00 0.04 0.00 91 1016.0
20260905150730 69 360 0.0 7.0 0.00 0.04 0.00 91 1016.0
20260905150229 69 113 5.0 7.0 0.00 0.04 0.00 91 1016.0
20260905145729 69 90 1.0 9.0 0.00 0.04 0.00 91 1016.0
20260905145229 69 68 2.0 9.0 0.00 0.09 0.00 91 1016.0
20260905144730 69 90 0.0 0.0 0.00 0.09 0.00 91 1016.0
20260905144229 69 113 0.0 0.0 0.00 0.09 0.00 91 1016.0
20260905143229 69 68 0.0 6.0 0.00 0.09 0.00 91 1016.0
20260905142729 70 113 0.0 6.0 0.00 0.09 0.00 91 1016.0
20260905142259 70 45 0.0 6.0 0.00 0.09 0.00 90 1015.0
20260905141758 70 113 0.0 6.0 0.00 0.09 0.00 89 1015.0
20260905141228 70 68 0.0 5.0 0.00 0.09 0.00 90 1015.0
20260905140728 70 338 0.0 7.0 0.00 0.09 0.00 90 1015.0
20260905140228 70 113 4.0 10.0 0.00 0.13 0.00 90 1015.0
20260905135728 70 113 2.0 10.0 0.00 0.13 0.00 91 1015.0
20260905135229 71 113 0.0 5.0 0.00 0.13 0.00 91 1015.0
20260905134728 71 338 0.0 6.0 0.00 0.13 0.00 91 1015.0
20260905134227 71 180 0.0 6.0 0.00 0.13 0.00 91 1015.0
20260905133727 71 203 4.0 6.0 0.00 0.13 0.00 91 1016.0
20260905133227 71 248 1.0 6.0 0.00 0.17 0.00 91 1016.0
20260905132726 71 113 4.0 6.0 0.00 0.17 0.00 91 1016.0
20260905132227 71 360 0.0 0.0 0.00 0.17 0.00 91 1015.0
20260905131226 71 360 0.0 6.0 0.00 0.17 0.00 91 1015.0
20260905130726 71 158 0.0 8.0 0.00 0.17 0.00 91 1015.0
20260905125226 70 203 1.0 4.0 0.00 0.17 0.00 91 1015.0
20260905124725 70 293 0.0 4.0 0.00 0.21 0.00 91 1015.0
20260905124325 70 45 0.0 5.0 0.00 0.21 0.00 91 1015.0